GFSNIL_con_mucape_159.txt.gz
CAPE
644 581 570 516 856 719 538 706 660 747 1114 965 1087 937 1106 1445 1014 1053 1455 1011 1054 826
719 595 480 414 671 693 563 530 568 844 1072 903 896 990 1114 1086 801 947 991 964 848 773
642 516 555 444 687 528 361 228 394 750 666 594 740 1032 1176 989 855 725 749 719 792 749
653 458 551 602 427 555 436 322 359 468 464 608 1005 1190 1173 1140 874 787 554 304 534 599
586 510 491 492 416 425 381 479 361 782 352 742 789 834 823 771 830 865 787 757 608 784
510 687 708 551 594 501 462 374 568 516 722 681 611 711 784 779 688 705 671 816 954 505
340 338 669 658 668 652 533 509 584 627 768 639 682 827 776 832 818 678 678 877 754 634
288 243 382 586 591 675 522 568 600 668 616 548 635 670 581 662 616 619 645 702 670 645
112 146 197 147 197 332 416 555 571 446 413 521 363 347 342 251 256 482 594 534 463 536
117 96 60 165 169 188 249 257 191 220 224 248 196 241 173 125 183 441 310 270 355 484
37 70 65 71 139 162 169 149 89 98 95 102 94 109 84 90 151 232 190 155 190 251
74 79 104 41 153 125 122 96 88 71 58 47 49 72 64 41 66 137 106 81 55 14
81 83 80 72 130 137 110 109 103 95 62 66 62 66 67 56 47 42 64 86 61 19
168 156 190 203 143 122 101 75 73 42 74 68 23 0 14 33 27 59 78 37 18 13

GFSNIL_con_mucape_162.txt.gz
CAPE
462 394 373 324 363 713 575 596 550 622 738 983 928 926 925 1265 1046 1066 1414 963 1071 1096
597 484 439 412 362 645 645 605 467 550 916 881 879 872 994 1015 765 879 870 829 804 864
611 540 511 409 316 475 527 438 407 340 699 820 649 643 1378 1071 832 740 512 527 607 703
496 617 504 397 351 502 465 347 227 273 401 454 791 991 1091 1080 896 751 649 628 322 590
418 563 587 470 480 378 401 329 266 228 436 429 760 681 714 811 1003 843 832 781 711 790
525 641 536 386 396 370 290 327 354 384 557 520 512 681 613 590 577 715 693 772 906 931
465 465 426 482 524 407 398 375 365 423 443 426 446 654 688 701 716 685 657 703 724 714
337 329 204 220 480 565 524 500 497 409 474 537 567 522 524 566 572 593 563 565 707 627
141 201 157 144 204 352 447 498 442 439 477 527 414 414 319 266 239 263 352 406 567 543
35 52 44 73 44 65 96 192 233 270 310 270 236 183 151 149 102 175 221 286 283 493
63 70 53 65 51 43 62 110 109 97 83 104 101 59 48 38 76 157 132 120 126 197
37 38 35 35 50 56 63 75 69 64 36 49 54 56 57 42 48 53 54 54 48 57
56 82 84 53 39 79 77 50 37 47 62 65 55 56 47 52 51 46 40 43 39 27
77 84 67 48 55 121 71 59 81 46 62 50 48 44 32 47 14 6 17 30 40 46

GFSNIL_con_mucape_165.txt.gz
CAPE
1640 1307 1318 1553 1395 1420 1539 1622 1831 1797 1937 2133 2177 2289 2207 3107 2093 2117 2837 2109 2834 2103
1563 1444 1338 1497 1526 1687 1979 1720 1793 1761 1931 2207 2142 2248 2327 2437 2106 2206 2238 1968 2396 1881
1585 1658 1585 1645 1496 1544 1941 1818 1765 1637 1770 2142 2097 1966 2227 2251 1845 1878 1412 1037 1567 2058
1627 1594 1636 1540 1527 1488 1666 1484 1458 1605 1604 1771 1716 1906 2256 2031 2126 1876 1991 1587 1604 1570
1506 1506 1528 1564 1596 1580 1656 1639 1575 1513 1551 1677 1575 1822 1944 1592 1644 1778 1181 1051 1855 1745
1457 1422 1475 1603 1639 1604 1479 1406 1460 1558 1669 1825 1651 1712 1747 1744 1571 1554 1494 1664 1707 1371
1470 1603 1584 1769 1745 1632 1621 1499 1451 1536 1550 1689 1633 1621 1679 1699 1749 1868 1597 1733 1702 1595
1235 1474 1653 1706 1689 1667 1631 1529 1576 1649 1511 1517 1472 691 778 847 995 1222 1287 1336 1519 1577
702 654 565 1134 1374 1544 1633 1763 1731 1501 1561 1193 352 366 319 334 507 745 1166 1432 1494 1472
207 282 497 708 674 886 1137 876 737 538 449 290 308 333 219 146 430 341 331 257 777 960
73 61 618 357 198 185 165 124 140 176 145 118 95 71 61 42 50 59 72 78 120 160
32 33 71 98 112 68 76 96 99 85 64 54 45 37 37 20 16 23 23 16 26 34
31 44 80 59 51 54 61 80 71 58 56 27 23 22 31 30 34 30 39 36 24 27
58 62 62 74 47 58 40 47 32 24 43 34 27 36 42 25 27 23 21 24 20 15

GFSNIL_con_mucape_168.txt.gz
CAPE
2268 1958 1248 1163 1341 1156 1035 1184 1722 1905 2035 2349 2294 2354 1778 1700 1532 1922 1939 2082 1682 1437
2337 2209 1404 1558 1830 1416 1572 1449 1756 2013 2271 2325 1984 2212 1572 1359 1406 1353 1368 1515 1617 1599
2079 2198 2078 1909 2058 1639 1595 1499 1908 2169 2136 1755 1507 1964 1673 1585 1417 1596 1423 1218 1603 1839
1893 1867 2087 1664 1932 1676 1207 1335 1424 2321 2020 2011 1300 1389 1803 1732 1379 1351 1222 1169 1543 1523
1965 1970 1794 1742 1628 1937 1546 1434 2026 2132 2017 2039 1904 1964 1550 1443 1123 1111 1252 1429 1432 1419
1981 2072 1878 1768 1952 1758 1984 2100 1962 1931 1792 1206 1363 1587 1398 1509 1586 1546 1117 1199 1328 1361
1969 2078 1876 1829 2123 1938 1988 2036 1933 2084 1481 1194 1190 1443 1537 1561 1542 1484 1256 1486 1743 1731
1879 2076 2150 2086 2245 1844 2063 1975 1906 1997 1577 1368 1444 1406 1814 1685 1615 1876 1667 1610 1803 1644
2323 2245 2302 2457 2586 2475 2227 1977 1873 1919 1606 1502 1235 588 284 498 1399 1732 1767 1806 1759 1789
1914 1453 1760 1889 1797 2152 1889 1471 1674 1850 1745 1695 1547 147 289 300 1103 1415 1365 1138 1550 1527
915 818 833 1252 1490 1145 1280 1561 1679 1527 1475 981 305 115 112 105 965 791 569 337 342 673
692 593 747 602 558 467 459 282 173 482 396 152 91 91 92 73 487 394 110 16 21 97
175 34 123 172 115 27 29 68 80 94 87 77 72 65 64 41 116 118 9 6 13 30
146 172 86 69 47 26 26 44 50 62 52 39 43 23 36 33 43 35 19 6 5 25

GFSNIL_con_mucape_171.txt.gz
CAPE
2427 1715 1400 1967 2007 757 1021 808 3290 2141 2232 2054 2065 2240 2102 1934 1793 2672 1717 1821 2034 1347
2859 2646 1888 3007 2252 2156 2391 1026 2165 1636 1640 1864 2299 2358 2235 1838 1706 1740 1642 1590 1582 1818
2871 2419 2272 1661 2133 2307 2190 1991 1869 1803 1945 1844 2005 2024 2288 2483 2369 1924 1644 1944 2004 1771
2460 2118 2185 1785 1741 1786 1827 1752 1835 1829 1655 1791 1944 1948 2040 2917 2171 1771 1827 1590 1550 1695
2307 2234 1835 1843 1625 1900 2108 1861 1834 1864 1889 2276 1686 1928 2116 2067 1694 1875 1389 2128 2096 2206
2142 2179 2002 1847 1869 1858 2377 1864 1794 2085 2161 2068 1846 1801 1806 1815 1822 2486 1205 1348 1420 1415
3085 3170 2146 2659 2689 2037 2732 2714 2181 2730 2076 1954 1765 1679 1726 2114 1856 1695 1402 1434 1477 2092
2961 3582 3399 3194 3299 2766 2654 2466 2045 1981 2073 1812 1728 1501 2183 1808 1692 1763 1668 1586 1616 1682
2763 3446 3626 3590 3197 3094 3173 2804 2853 2086 2149 2048 1239 738 819 887 1486 1619 1698 1822 1926 1878
3235 2722 3053 3213 2958 3147 2646 2513 2500 2597 1978 1887 1614 726 716 234 862 1408 1752 1644 1771 1460
1802 1204 1770 2428 2590 2650 2438 2735 2627 2075 1962 1939 879 805 266 210 1022 1384 1130 893 830 1410
1762 973 1355 1721 1658 1749 1502 1430 1593 1455 1601 1347 721 339 126 94 1054 1106 456 128 63 279
807 774 1285 1380 1080 517 167 103 101 155 424 430 227 116 81 125 1165 797 156 31 14 7
144 235 609 368 65 44 26 35 44 47 107 86 70 58 60 74 92 100 47 42 29 35